Du Bois, PA

8:17 PM EDT on June 24, 2017 (GMT -0400)
Du Bois-Jefferson County

Weather History for KDUJ - March, 2013

Change the Weather History Date:

Tuesday, March 12, 2013

  Actual Average Record
Temperature  
Mean Temperature 40 °F 33 °F  
Max Temperature 48 °F 43 °F 72 °F (1990)
Min Temperature 32 °F 24 °F 2 °F (1984)
Degree Days  
Heating Degree Days 25 32  
Month to date heating degree days 387 402  
Since 1 July heating degree days 5110 5425  
Cooling Degree Days 0 0  
Month to date cooling degree days 0 0  
Year to date cooling degree days 0 0  
Moisture  
Dew Point 34 °F    
Average Humidity 85    
Maximum Humidity 100    
Minimum Humidity 70    
Precipitation  
Precipitation 0.28 in 0.10 in 6.99 in (1998)
Month to date precipitation 0.42 1.20  
Sea Level Pressure  
Sea Level Pressure 29.82 in    
Wind  
Wind Speed 12 mph (WSW)    
Max Wind Speed 17 mph    
Max Gust Speed 24 mph    
Visibility 7 miles    
Events Rain , Snow    
T = Trace of Precipitation, MM = Missing Value Source: NWS Daily Summary

Daily Weather History Graph

Daily Weather History Graph

Search for Another Location

Airport or City:

Trip Planner

Search our weather history database for the weather conditions in past years. The results will help you decide how hot, cold, wet, or windy it might be!

Date:

Astronomy

Mar. 12, 2013 Rise Set
Actual Time 7:31 AM EDT 7:19 PM EDT
Civil Twilight 7:04 AM EDT 7:46 PM EDT
Nautical Twilight 6:32 AM EDT 8:18 PM EDT
Astronomical Twilight 6:00 AM EDT 8:51 PM EDT
Moon 7:36 AM EDT (3/12) 8:33 PM EDT (3/12)
Length of Visible Light 12h 42m
Length of Day
11h 47m
New Moon, 1% of the Moon is Illuminated
Mar 12
New Moon
Mar 19
First Quarter
Mar 27
Full
Apr 3
Last Quarter
Apr 10
New

Hourly Weather History & Observations

Time (EDT) Temp. Windchill Dew Point Humidity Pressure Visibility Wind Dir Wind Speed Gust Speed Precip Events Conditions
12:45 AM 48.2 °F - 46.4 °F 93% 29.73 in 5.0 mi SSE 10.4 mph 17.3 mph 0.04 in Rain Light Rain
12:56 AM 48.0 °F - 46.9 °F 96% 29.73 in 4.0 mi SSE 11.5 mph 17.3 mph 0.06 in Rain Light Rain
1:04 AM 48.2 °F - 46.4 °F 93% 29.73 in 5.0 mi South 10.4 mph 17.3 mph 0.00 in Rain Light Rain
1:22 AM 44.6 °F 37.8 °F 42.8 °F 93% 29.75 in 3.0 mi West 15.0 mph - 0.07 in Rain Rain
1:29 AM 44.6 °F 37.4 °F 42.8 °F 93% 29.74 in 4.0 mi West 16.1 mph - 0.08 in Rain Light Rain
1:36 AM 44.6 °F 38.4 °F 42.8 °F 93% 29.74 in 5.0 mi WSW 12.7 mph - 0.09 in Rain Light Rain
1:56 AM 44.1 °F 37.4 °F 43.0 °F 96% 29.77 in 5.0 mi WSW 13.8 mph 21.9 mph 0.12 in Rain Light Rain
2:13 AM 44.6 °F 38.4 °F 42.8 °F 93% 29.75 in 7.0 mi WSW 12.7 mph - 0.01 in Rain Light Rain
2:56 AM 43.0 °F 39.5 °F 42.1 °F 97% 29.76 in 7.0 mi SSW 5.8 mph - 0.01 in   Overcast
3:03 AM 42.8 °F 40.1 °F 42.8 °F 100% 29.74 in 5.0 mi Variable 4.6 mph - 0.01 in Rain Light Rain
3:56 AM 42.1 °F 37.1 °F 42.1 °F 100% 29.75 in 3.0 mi SW 8.1 mph - 0.05 in Rain Light Rain
4:56 AM 39.9 °F 33.9 °F 39.0 °F 97% 29.78 in 6.0 mi West 9.2 mph - 0.07 in Rain Light Rain
5:45 AM 39.2 °F 33.6 °F 37.4 °F 93% 29.77 in 2.5 mi West 8.1 mph - 0.02 in   Overcast
5:56 AM 39.0 °F 32.8 °F 37.9 °F 96% 29.79 in 2.0 mi West 9.2 mph - 0.02 in   Overcast
6:27 AM 37.4 °F 32.1 °F 35.6 °F 93% 29.78 in 4.0 mi West 6.9 mph - 0.01 in   Overcast
6:34 AM 37.4 °F 30.3 °F 35.6 °F 93% 29.78 in 4.0 mi West 10.4 mph - 0.01 in   Overcast
6:53 AM 37.4 °F 30.3 °F 35.6 °F 93% 29.79 in 10.0 mi WSW 10.4 mph - 0.01 in   Overcast
6:56 AM 37.0 °F 29.8 °F 36.0 °F 96% 29.81 in 9.0 mi WSW 10.4 mph - 0.01 in   Overcast
7:07 AM 37.4 °F 30.3 °F 35.6 °F 93% 29.78 in 8.0 mi West 10.4 mph - N/A   Overcast
7:35 AM 35.6 °F 29.2 °F 35.6 °F 100% 29.80 in 6.0 mi WSW 8.1 mph - N/A   Overcast
7:49 AM 35.6 °F 29.9 °F 35.6 °F 100% 29.79 in 1.8 mi West 6.9 mph - N/A   Overcast
8:23 AM 35.6 °F 28.0 °F 35.6 °F 100% 29.80 in 2.5 mi WSW 10.4 mph - N/A   Overcast
8:30 AM 35.6 °F 27.5 °F 35.6 °F 100% 29.80 in 1.8 mi West 11.5 mph - N/A   Overcast
8:56 AM 36.0 °F 28.0 °F 34.0 °F 93% 29.83 in 2.5 mi West 11.5 mph - N/A   Overcast
9:10 AM 35.6 °F 26.6 °F 33.8 °F 93% 29.81 in 3.0 mi West 13.8 mph 19.6 mph N/A   Overcast
9:56 AM 35.1 °F 27.4 °F 33.1 °F 92% 29.85 in 2.5 mi West 10.4 mph - N/A   Overcast
10:11 AM 35.6 °F 27.5 °F 33.8 °F 93% 29.82 in 3.0 mi WSW 11.5 mph - N/A   Overcast
10:20 AM 35.6 °F 29.2 °F 33.8 °F 93% 29.82 in 6.0 mi West 8.1 mph - N/A   Overcast
10:56 AM 36.0 °F 27.5 °F 32.0 °F 86% 29.84 in 10.0 mi WSW 12.7 mph - N/A   Overcast
11:56 AM 37.9 °F 31.5 °F 32.0 °F 79% 29.83 in 10.0 mi WSW 9.2 mph - N/A   Overcast
12:42 PM 37.4 °F 27.2 °F 28.4 °F 70% 29.81 in 10.0 mi West 19.6 mph 23.0 mph N/A   Overcast
12:56 PM 37.0 °F 28.9 °F 28.9 °F 73% 29.84 in 10.0 mi West 12.7 mph 23.0 mph N/A   Overcast
1:56 PM 37.0 °F 27.4 °F 30.0 °F 76% 29.84 in 10.0 mi West 17.3 mph 24.2 mph N/A   Overcast
2:35 PM 35.6 °F 26.2 °F 30.2 °F 81% 29.81 in 10.0 mi West 15.0 mph 21.9 mph 0.00 in   Overcast
2:43 PM 35.6 °F 24.8 °F 30.2 °F 81% 29.81 in 2.0 mi West 19.6 mph 24.2 mph 0.00 in Snow Light Snow
2:56 PM 35.1 °F 26.4 °F 30.0 °F 82% 29.84 in 8.0 mi West 12.7 mph 21.9 mph 0.00 in   Overcast
3:08 PM 35.6 °F 26.2 °F 30.2 °F 81% 29.81 in 10.0 mi West 15.0 mph - N/A   Overcast
3:23 PM 35.6 °F 25.2 °F 30.2 °F 81% 29.82 in 10.0 mi West 18.4 mph 23.0 mph N/A   Overcast
3:56 PM 34.0 °F 24.2 °F 28.0 °F 79% 29.86 in 10.0 mi West 15.0 mph - N/A   Overcast
4:56 PM 34.0 °F 25.5 °F 28.0 °F 79% 29.88 in 10.0 mi West 11.5 mph - N/A   Overcast
5:38 PM 33.8 °F 24.3 °F 26.6 °F 75% 29.84 in 10.0 mi West 13.8 mph 19.6 mph N/A   Overcast
5:56 PM 34.0 °F 25.0 °F 27.0 °F 75% 29.88 in 10.0 mi WSW 12.7 mph - N/A   Overcast
6:56 PM 33.1 °F 23.9 °F 27.0 °F 78% 29.91 in 10.0 mi West 12.7 mph 20.7 mph N/A   Overcast
7:56 PM 33.1 °F 25.5 °F 27.0 °F 78% 29.93 in 10.0 mi West 9.2 mph - N/A   Overcast
8:43 PM 32.0 °F 24.8 °F 28.4 °F 87% 29.89 in 7.0 mi WSW 8.1 mph - N/A   Overcast
8:56 PM 32.0 °F 24.2 °F 28.0 °F 85% 29.94 in 7.0 mi West 9.2 mph - N/A   Overcast
9:35 PM 32.0 °F 22.1 °F 26.6 °F 80% 29.90 in 10.0 mi WSW 13.8 mph - 0.00 in   Overcast
9:56 PM 32.0 °F 23.0 °F 27.0 °F 82% 29.94 in 10.0 mi WSW 11.5 mph - 0.00 in   Overcast
10:56 PM 32.0 °F 23.0 °F 25.0 °F 75% 29.95 in 10.0 mi West 11.5 mph - N/A   Overcast
11:56 PM 32.0 °F 23.0 °F 26.1 °F 79% 29.95 in 8.0 mi WSW 11.5 mph - N/A   Overcast